Regional Weather Roundup
Issued by NWS

Home | Current Version | Previous Version | Text Only | Print | Product List | Glossary On
Versions: 1 2 3 4 5 6 7 8 9 10 11 12 13 14 15 16 17 18 19 20 21 22 23 24 25 26 27 28 29 30 31 32 33 34 35 36 37 38 39 40 41 42 43 44 45 46 47 48 49 50
000
ASUS45 KTFX 242110
RWRMT
MONTANA REGIONAL WEATHER ROUNDUP
NATIONAL WEATHER SERVICE GREAT FALLS MT
300 PM MDT TUE APR 24 2018

NOTE: "FAIR" INDICATES FEW OR NO CLOUDS BELOW 12000 FEET WITH NO
SIGNIFICANT WEATHER AND/OR OBSTRUCTIONS TO VISIBILITY.

MTZ001>007-043-242200-
WEST OF THE DIVIDE

CITY           SKY/WX    TMP DP  RH WIND       PRES   REMARKS
KALISPELL      FAIR      60  24  25 VRB3      30.34F
MISSOULA       FAIR      61  27  27 SE7       30.34F
BUTTE          FAIR      52  23  32 S12       30.40F
MULLAN PASS    FAIR      52  14  22 VRB6      30.36F
ANACONDA         N/A     55  12  18 MISG      30.37F
DEER LODGE       N/A     57  16  19 SE8       30.39F
HAMILTON         N/A     61  21  21 MISG      30.35F
PLAINS           N/A     68  32  26 CALM      30.30F
RONAN            N/A     59  23  25 VRB6      30.36F
$$

MTZ008-052>055-242200-
SOUTHWEST MONTANA

CITY           SKY/WX    TMP DP  RH WIND       PRES   REMARKS
BOZEMAN        FAIR      52  29  41 N7        30.42F
DILLON         FAIR      50  25  37 VRB3      30.41F
ENNIS          SUNNY     48  25  40 VRB5      30.45S
W YELLOWSTONE  FAIR      43  16  33 CALM      30.39F
THREE FORKS      N/A     51  29  43 S5        30.37F
TWIN BRIDGES     N/A     51  20  29 E2        30.35
$$

MTZ009-010-012-014-046-048-049-054-242200-
EAST SLOPES AND CENTRAL MONTANA

CITY           SKY/WX    TMP DP  RH WIND       PRES   REMARKS
CUT BANK       FAIR      67   9  10 S15G23    30.25F
GREAT FALLS    FAIR      62  21  20 S18G24    30.33F
HELENA         FAIR      58  30  34 E15G24    30.38F
CHOTEAU          N/A     66  14  13 S16       30.31F
WHITE SULPHUR    N/A     48  23  37 S17       30.40F
$$

MTZ011-013-016-021-045-047-050-051-242200-
NORTH CENTRAL MONTANA

CITY           SKY/WX    TMP DP  RH WIND       PRES   REMARKS
HAVRE          FAIR      65  21  18 SW21G28   30.30F
LEWISTOWN      FAIR      56  26  31 CALM      30.36F
N BAR RANCH    FAIR      52  27  37 SW18      30.40F
CHINOOK          N/A     66  18  15 S5        30.30F
$$

MTZ017>020-022>027-061-062-242200-
NORTHEAST MONTANA

CITY           SKY/WX    TMP DP  RH WIND       PRES   REMARKS
GLASGOW        FAIR      63  24  22 S10       30.36F
JORDAN           N/A     59  28  30 SW13      30.39F
MALTA          SUNNY     61  30  31 SW13G21   30.32F
SIDNEY         FAIR      59  28  30 W13       30.39F
WOLF POINT     FAIR      62  24  23 CALM      30.37F
PLENTYWOOD       N/A     59  21  23 CALM      30.35F
SCOBEY           N/A     61  21  21 SW5       30.31F
$$

MTZ028>42-056>058-242200-
SOUTHCENTRAL AND SOUTHEAST MONTANA

CITY           SKY/WX    TMP DP  RH WIND       PRES   REMARKS
BAKER          FAIR      46  31  55 SW10      30.46F
BILLINGS       FAIR      52  27  38 S7        30.44F
LIVINGSTON     FAIR      50  29  44 VRB3      30.41F
MILES CITY     FAIR      54  31  41 W8        30.43F
BIG TIMBER     SUNNY     45  30  57 S8        30.45F
EKALAKA          N/A     43  39  85 W3        30.39F
FORSYTH          N/A     54  27  35 SW12      30.44F
ROUNDUP          N/A     54  24  31 S13       30.30F
$$

REGIONAL REPORTS...DAKOTAS

CITY           SKY/WX    TMP DP  RH WIND       PRES   REMARKS
WILLISTON      FAIR      59  25  27 SW13G20   30.38F
MINOT          FAIR      61  18  18 MISG      30.37F
DICKINSON      FAIR      55  17  22 NW8       30.39F
BEACH          FAIR      52  27  37 W8G15     30.45F
CROSBY         FAIR      59  23  25 SW8G18    30.36F
TIOGA          FAIR      55  23  28 VRB7G15   30.39F
WATFORD CITY   FAIR      57  25  28 NW7       30.39F
BISMARCK       FAIR      57  24  28 N8G20     30.40F
GRAND FORKS    FAIR      52  30  43 N21G32    30.35F
FARGO          FAIR      54  30  40 N24G32    30.34F
BUFFALO SD       N/A     52  20  28 VRB7      30.38F
RAPID CITY     CLOUDY    46  27  47 N18       30.44F
$$

REGIONAL REPORTS...WYOMING/IDAHO/WASHINGTON

CITY           SKY/WX    TMP DP  RH WIND       PRES   REMARKS
GILLETTE       PTSUNNY   46  25  43 N12       30.45F
SHERIDAN       FAIR      51  25  36 E7        30.44F
BUFFALO WY     FAIR      46  21  37 E6        30.45F
CODY           FAIR      48  19  31 VRB5      30.44F
YELLOWSTONE LA   N/A     38  13  35 VRB5      30.45F
IDAHO FALLS    FAIR      56  33  42 NE9       30.36F
SALMON         FAIR      59  21  23 VRB6      30.36F
BOISE          FAIR      64  35  34 VRB5      30.29F
SPOKANE        PTSUNNY   64  25  22 S5        30.28F
$$

REGIONAL REPORTS...ALBERTA

CITY           SKY/WX    TMP DP  RH WIND       PRES   REMARKS
CALGARY        CLOUDY    68  12  11 SW8G17    30.13F
CARDSTON         N/A     68  10  10 W13G21      N/A
EDMONTON       MOSUNNY   68  21  17 W7        30.05F
FORT MCMURRAY  MOSUNNY   66  27  22 W20G29    29.86F
HIGH LEVEL     MOSUNNY   59  23  25 NW9G22    29.90S
LETHBRIDGE     PTSUNNY   73  14  10 SW16G24   30.16F
LLOYDMINSTER   PTSUNNY   70  27  19 W17G25    30.06F
MEDICINE HAT   PTSUNNY   70  18  13 SW21G28   30.19F
PEACE RIVER    CLOUDY    57  30  35 W17G25    30.01F
PINCHER CREEK  MOSUNNY   63  21  20 SW24G33   30.21F
WATERTON GATE    N/A     59  18  20 SW23G32     N/A
$$

REGIONAL REPORTS...SASKATCHEWAN

CITY           SKY/WX    TMP DP  RH WIND       PRES   REMARKS
CORONACH         N/A     63  19  19 SW12G18     N/A
CYPRESS HILLS    N/A     55  19  24 SW15G23     N/A
ESTEVAN        MOSUNNY   59  23  25 SW9G21    30.35F
MOOSE JAW        N/A     66  18  15 SW20G25     N/A
PRINCE ALBERT  MOSUNNY   66  32  28 W16G24    30.12F
REGINA         MOSUNNY   64  21  19 W15G25    30.28F
ROCKGLEN         N/A     61  19  20 SW14G20     N/A
SASKATOON      PTSUNNY   68  23  18 SW22G29   30.17F
SWIFT CURRENT  SUNNY     64  25  22 SW21G33   30.24F
VAL MARIE        N/A     63  21  20 SW16G23     N/A
$$



USA.gov is the U.S. government's official web portal to all federal, state and local government web resources and services.